Tracking 31027 objects as of 19-Jul-2025
HD Live streaming from Space Station
objects crossing your sky now

STARLINK-30152

Track STARLINK-30152 now!
10-day predictions
STARLINK-30152 is classified as:


NORAD ID: 56828
Int'l Code: 2023-079F
Perigee: 565.3 km
Apogee: 567.1 km
Inclination: 43.0 °
Period: 95.8 minutes
Semi major axis: 6937 km
RCS: Unknown
Launch date: June 4, 2023
Source: United States (US)
Launch site: AIR FORCE EASTERN TEST RANGE (AFETR)
Your satellite tracking list
Your tracking list is empty




NASA's NSSDC Master Catalog

Two Line Element Set (TLE):
1 56828U 23079F   25199.74347738 -.00000185  00000-0  13950-5 0  9997
2 56828  43.0034 298.4990 0001321 263.4781  96.5911 15.02535017117698
Source of the keplerian elements: AFSPC